This demonstration page uses our WeatherBlox Daily Observations layout. Learn more.

Hourly Observations for July 27, 2017

Temp ( °F °C ) Dew Point ( °F °C ) Humidity (%) Winds ( mph kmh ) Pressure ( in mb ) Visibility ( mi km ) Precip ( " mm )
12:15 am 00:15 Mostly Cloudy 77 25 70 21 79 79 SSE 6 9 30.12 1020 10 16.09344 0 0
12:35 am 00:35 Mostly Cloudy 77 25 70 21 79 79 SSE 5 7 30.12 1020 10 16.09344 0 0
12:55 am 00:55 Partly Cloudy 75 24 70 21 83 83 SSE 6 9 30.09 1019 10 16.09344 0 0
1:15 am 01:15 Partly Cloudy 75 24 70 21 83 83 SE 3 6 30.09 1019 10 16.09344 0 0
1:35 am 01:35 Partly Cloudy 73 23 70 21 89 89 SSE 7 11 30.09 1019 10 16.09344 0 0
1:55 am 01:55 Clear 73 23 70 21 89 89 S 9 15 30.09 1019 10 16.09344 0 0
2:15 am 02:15 Clear 73 23 70 21 89 89 S 7 11 30.09 1019 10 16.09344 0 0
2:35 am 02:35 Mostly Cloudy 72 22 70 21 94 94 Calm 30.09 1019 10 16.09344 0 0
2:55 am 02:55 Cloudy 72 22 70 21 94 94 Calm 30.06 1018 10 16.09344 0 0
3:15 am 03:15 Mostly Cloudy 72 22 70 21 94 94 S 5 7 30.06 1018 10 16.09344 0 0
3:35 am 03:35 Clear 72 22 70 21 94 94 S 5 7 30.06 1018 10 16.09344 0 0
3:55 am 03:55 Mostly Cloudy 72 22 70 21 94 94 S 5 7 30.06 1018 10 16.09344 0 0
4:15 am 04:15 Cloudy 72 22 70 21 94 94 S 3 6 30.06 1018 10 16.09344 0 0
4:35 am 04:35 Cloudy 72 22 70 21 94 94 Calm 30.06 1018 10 16.09344 0 0
4:55 am 04:55 Cloudy 72 22 70 21 94 94 SSE 3 6 30.06 1018 10 16.09344 0 0
5:15 am 05:15 Cloudy 72 22 70 21 94 94 SSE 3 6 30.06 1018 10 16.09344 0 0
5:35 am 05:35 Cloudy 72 22 70 21 94 94 Calm 30.06 1018 10 16.09344 0 0
5:55 am 05:55 Cloudy 72 22 70 21 94 94 S 5 7 30.06 1018 10 16.09344 0 0
6:15 am 06:15 Cloudy 72 22 70 21 94 94 SSE 8 13 30.06 1018 10 16.09344 0 0
6:35 am 06:35 Cloudy 72 22 70 21 94 94 SSE 8 13 30.06 1018 10 16.09344 0 0
6:55 am 06:55 Cloudy 72 22 70 21 94 94 SSE 5 7 30.06 1018 10 16.09344 0 0
7:15 am 07:15 Cloudy 72 22 70 21 94 94 S 7 11 30.06 1018 10 16.09344 0 0
7:35 am 07:35 Cloudy 72 22 70 21 94 94 S 5 7 30.03 1017 10 16.09344 0 0
7:55 am 07:55 Cloudy 72 22 70 21 94 94 S 8 13 30.03 1017 10 16.09344 0 0
8:15 am 08:15 Cloudy 72 22 70 21 94 94 S 7 11 30.03 1017 10 16.09344 0 0
8:35 am 08:35 Cloudy 73 23 70 21 89 89 SSW 9 15 30.03 1017 10 16.09344 0 0
8:55 am 08:55 Cloudy 73 23 70 21 89 89 SSW 5 7 30.03 1017 10 16.09344 0 0
9:15 am 09:15 Cloudy 73 23 72 22 94 94 S 7 11 30.03 1017 10 16.09344 0 0
9:35 am 09:35 Cloudy 75 24 72 22 89 89 S 5 7 30.03 1017 10 16.09344 0 0
9:55 am 09:55 Cloudy 75 24 72 22 89 89 S 5 7 30.03 1017 10 16.09344 0 0
10:15 am 10:15 Cloudy 77 25 72 22 83 83 S 6 9 30 1016 10 16.09344 0 0
10:35 am 10:35 Cloudy 77 25 72 22 83 83 Calm 30 1016 10 16.09344 0 0
10:55 am 10:55 Mostly Cloudy 79 26 72 22 79 79 SSW 7 11 30 1016 10 16.09344 0 0
11:15 am 11:15 Mostly Cloudy 81 27 73 23 79 79 S 7 11 30 1016 10 16.09344 0 0
11:35 am 11:35 Mostly Cloudy 81 27 73 23 79 79 S 6 9 30 1016 10 16.09344 0 0
11:55 am 11:55 Mostly Cloudy 82 28 73 23 74 74 WSW 5 7 29.97 1015 10 16.09344 0 0
12:15 pm 12:15 Partly Cloudy 86 30 73 23 66 66 S 6 9 29.94 1014 10 16.09344 0 0
12:35 pm 12:35 Partly Cloudy 84 29 73 23 70 70 SSW 3 6 29.97 1015 10 16.09344 0 0
12:55 pm 12:55 Mostly Cloudy 82 28 73 23 74 74 SSW 5 7 29.97 1015 10 16.09344 0 0
1:15 pm 13:15 Partly Cloudy 84 29 73 23 70 70 WSW 3 6 29.97 1015 10 16.09344 0 0
1:35 pm 13:35 Mostly Cloudy 86 30 73 23 66 66 WSW 6 9 29.91 1013 10 16.09344 0 0
1:55 pm 13:55 Partly Cloudy 84 29 73 23 70 70 S 5 7 29.94 1014 10 16.09344 0 0
2:15 pm 14:15 Partly Cloudy 86 30 73 23 66 66 S 5 7 29.91 1013 10 16.09344 0 0
2:35 pm 14:35 Mostly Cloudy 86 30 73 23 66 66 W 3 6 29.91 1013 10 16.09344 0 0
2:55 pm 14:55 Partly Cloudy 86 30 73 23 66 66 SSW 3 6 29.91 1013 10 16.09344 0 0
3:15 pm 15:15 Sunny 86 30 73 23 66 66 WSW 5 7 29.88 1012 10 16.09344 0 0
3:35 pm 15:35 Sunny 88 31 73 23 62 62 SW 5 7 29.88 1012 10 16.09344 0 0
3:55 pm 15:55 Partly Cloudy 88 31 75 24 66 66 SSW 5 7 29.88 1012 10 16.09344 0 0
4:15 pm 16:15 Partly Cloudy 88 31 73 23 62 62 SW 5 7 29.88 1012 10 16.09344 0 0
4:35 pm 16:35 Partly Cloudy 86 30 73 23 66 66 SW 3 6 29.88 1012 10 16.09344 0 0
4:55 pm 16:55 Sunny 88 31 73 23 62 62 SSW 3 6 29.88 1012 10 16.09344 0 0
5:15 pm 17:15 Sunny 86 30 73 23 66 66 Calm 29.85 1011 10 16.09344 0 0
5:35 pm 17:35 Sunny 86 30 73 23 66 66 Calm 29.85 1011 10 16.09344 0 0
5:55 pm 17:55 Sunny 86 30 73 23 66 66 Calm 29.85 1011 10 16.09344 0 0
6:15 pm 18:15 Sunny 86 30 75 24 70 70 Calm 29.85 1011 10 16.09344 0 0
6:35 pm 18:35 Partly Cloudy 86 30 75 24 70 70 Calm 29.85 1011 10 16.09344 0 0
6:55 pm 18:55 Cloudy 86 30 77 25 75 75 SW 3 6 29.85 1011 10 16.09344 0 0
7:15 pm 19:15 Cloudy 84 29 77 25 79 79 Calm 29.88 1012 10 16.09344 0 0
7:35 pm 19:35 Mostly Cloudy 84 29 77 25 79 79 WSW 3 6 29.88 1012 10 16.09344 0 0
7:55 pm 19:55 Partly Cloudy with Nearby Thunderstorms 82 28 77 25 84 84 W 3 6 29.88 1012 10 16.09344 0 0
8:15 pm 20:15 Mostly Cloudy with Nearby Thunderstorms 82 28 75 24 79 79 SSW 7 11 29.88 1012 10 16.09344 0 0
8:35 pm 20:35 Mostly Cloudy 81 27 73 23 79 79 Calm 29.88 1012 10 16.09344 0 0
8:55 pm 20:55 Clear 79 26 72 22 79 79 Calm 29.88 1012 10 16.09344 0 0
9:15 pm 21:15 Mostly Cloudy with Light Rain 79 26 72 22 79 79 W 6 9 29.88 1012 10 16.09344 0 0
9:35 pm 21:35 Mostly Cloudy with Light Rain 77 25 73 23 89 89 Calm 29.88 1012 10 16.09344 0 0
9:55 pm 21:55 Clear 77 25 73 23 89 89 Calm 29.88 1012 10 16.09344 0 0
10:15 pm 22:15 Mostly Cloudy 75 24 73 23 94 94 N 3 6 29.88 1012 10 16.09344 0 0
10:35 pm 22:35 Cloudy 75 24 75 24 100 100 Calm 29.88 1012 10 16.09344 0 0
10:55 pm 22:55 Partly Cloudy 75 24 75 24 100 100 Calm 29.88 1012 7 11.265408 0 0
11:15 pm 23:15 Clear 75 24 75 24 100 100 Calm 29.88 1012 10 16.09344 0 0
11:35 pm 23:35 Partly Cloudy 73 23 73 23 100 100 WNW 3 6 29.88 1012 7 11.265408 0 0
11:55 pm 23:55 Mostly Cloudy 73 23 73 23 100 100 Calm 29.88 1012 10 16.09344 0 0

Powered by AerisWeather